COSMOS 1961

导读 | 星芒AI

COSMOS 1961 是苏联于1961年发射的一颗卫星,属于早期探索太空计划的一部分。该卫星主要用于科学研究和技术测试,搭载了多种实验设备以研究宇宙辐射和空间环境。尽管其具体任务细节部分未公开,但其发射标志着苏联在太空竞赛中的持续领先地位。COSMOS系列卫星在冷战期间发挥了重要作用,为后续的太空探索奠定了基础。

基本信息
目录编号:
19344
目录名称:
COSMOS 1961
国际标识:
1988-066A
轨道中心:
EARTH
卫星名称:
COSMOS 1961
卫星全名:
--
卫星状态:
在轨 (已飞行13606 天)
发射日期:
1988-08-01 UTC
国别 :
俄罗斯(独联体) (CIS)
星等 :
--
轨道信息
数据来源 国际轨道数据 AOE轨道数据
星历时间 2025-10-31T23:02:44+0800
12小时前
查看轨道信息
2025-11-01T05:00:00+0800
6小时前
查看轨道信息
半长轴 42161.337km 42161.337km
偏心率 0.000422 0.000395
轨道倾角 11.755° 11.756°
近地点辐角 192.159° 195.747°
升交点赤经 331.210° 331.208°
平近点角 179.087° 265.073°
近地点 35765.409km 35766.548km
远地点 35800.995km 35799.856km
周期 1435.923分钟 1435.923分钟
每日圈数 1.002839 1.002839
详细信息
使用方式:
暂无
2D轨道图
3D轨道图
轨道高度分析图
轨道倾角分析图
轨道综合分析图
查看轨道综合分析图